Location: Te Maire Creek
(41.1333°S, 175.9167°E)
Time: 00:37:19
(UTC+00:00)

CZ-4 R/B - Pass Details

Date: 19 May 2024
Orbit: 567 x 578 km, 97.7° (Epoch: 18 June)

Event Time Altitude Azimuth Distance (km) Brightness Sun altitude
Rises 18:27:27 0° 14° (NNE) 2,764 8.4 -10.4°
Reaches altitude 10° 18:29:34 10° 13° (NNE) 1,875 7.5 -10.0°
Maximum altitude 18:33:38 89° 292° (WNW) 583 4.4 -9.3°
Drops below altitude 10° 18:37:47 10° 193° (SSW) 1,904 6.8 -8.5°
Sets 18:39:57 0° 192° (SSW) 2,811 7.6 -8.1°
